Guthrie, OK

8:19 AM CDT on August 29, 2016 (GMT -0500)
Guthrie Municipal

Weather History for KGOK - July, 2013

Change the Weather History Date:

Monday, July 15, 2013

  Actual Average Record
Temperature  
Mean Temperature 70 °F -  
Max Temperature 77 °F 95 °F 112 °F (1954)
Min Temperature 62 °F 71 °F 55 °F (1950)
Cooling Degree Days 4    
Growing Degree Days 20 (Base 50)    
Moisture  
Dew Point 65 °F    
Average Humidity 86    
Maximum Humidity 94    
Minimum Humidity 66    
Precipitation  
Precipitation 0.45 in - - ()
Sea Level Pressure  
Sea Level Pressure 30.08 in    
Wind  
Wind Speed 8 mph (East)    
Max Wind Speed 22 mph    
Max Gust Speed 29 mph    
Visibility 6 miles    
Events Rain , Thunderstorm    
Averages and records for this station are not official NWS values.
T = Trace of Precipitation, MM = Missing Value Source: NWS Daily Summary

Daily Weather History Graph

Daily Weather History Graph

Search for Another Location

Airport or City:

Trip Planner

Search our weather history database for the weather conditions in past years. The results will help you decide how hot, cold, wet, or windy it might be!

Date:

Astronomy

Jul. 15, 2013 Rise Set
Actual Time 6:25 AM CDT 8:45 PM CDT
Civil Twilight 5:55 AM CDT 9:15 PM CDT
Nautical Twilight 5:19 AM CDT 9:51 PM CDT
Astronomical Twilight 4:39 AM CDT 10:30 PM CDT
Moon 1:29 PM CDT (7/15) 12:14 AM CDT (7/15)
Length of Visible Light 15h 19m
Length of Day
14h 20m
Waxing Crescent, 45% of the Moon is Illuminated
Jul 15
Waxing Crescent
Jul 15
First Quarter
Jul 22
Full
Jul 29
Last Quarter
Aug 6
New

Hourly Weather History & Observations

Time (CDT) Temp. Dew Point Humidity Pressure Visibility Wind Dir Wind Speed Gust Speed Precip Events Conditions
12:53 AM 66.9 °F 61.0 °F 81% 30.05 in 9.0 mi NW 5.8 mph - 0.00 in   Mostly Cloudy
1:35 AM 66.2 °F 62.6 °F 88% 30.07 in 8.0 mi Calm Calm - N/A Thunderstorm Mostly Cloudy
1:53 AM 66.0 °F 62.1 °F 87% 30.10 in 2.5 mi SE 21.9 mph 28.8 mph 0.07 in Rain , Thunderstorm Heavy Thunderstorms and Rain
2:02 AM 64.4 °F 60.8 °F 88% 30.12 in 1.2 mi East 8.1 mph 28.8 mph 0.15 in Rain , Thunderstorm Heavy Thunderstorms and Rain
2:14 AM 64.4 °F 60.8 °F 88% 30.11 in 2.5 mi East 5.8 mph - 0.21 in Rain , Thunderstorm Heavy Thunderstorms and Rain
2:25 AM 62.6 °F 60.8 °F 94% 30.09 in 4.0 mi Calm Calm - 0.24 in Rain , Thunderstorm Light Thunderstorms and Rain
2:53 AM 63.0 °F 61.0 °F 93% 30.04 in 8.0 mi NW 5.8 mph - 0.27 in Rain Light Rain
3:53 AM 64.0 °F 61.0 °F 90% 30.07 in 7.0 mi Calm Calm - 0.00 in   Mostly Cloudy
4:53 AM 64.0 °F 62.1 °F 93% 30.06 in 7.0 mi NNE 3.5 mph - N/A   Overcast
5:53 AM 64.0 °F 62.1 °F 93% 30.09 in 8.0 mi NE 5.8 mph - N/A   Overcast
6:53 AM 64.9 °F 62.1 °F 90% 30.06 in 8.0 mi NE 9.2 mph - 0.01 in   Overcast
7:53 AM 66.0 °F 63.0 °F 90% 30.06 in 7.0 mi ENE 6.9 mph - N/A   Overcast
8:53 AM 66.9 °F 63.0 °F 87% 30.09 in 4.0 mi East 4.6 mph - 0.03 in Rain Light Rain
9:53 AM 66.9 °F 64.0 °F 90% 30.08 in 5.0 mi East 5.8 mph - 0.02 in Rain Light Rain
10:53 AM 68.0 °F 64.9 °F 90% 30.07 in 5.0 mi Calm Calm - 0.02 in Rain Light Rain
11:29 AM 69.8 °F 64.4 °F 83% 30.08 in 3.0 mi NNE 6.9 mph - 0.01 in Rain Light Rain
11:38 AM 69.8 °F 64.4 °F 83% 30.08 in 2.5 mi NNE 4.6 mph - 0.01 in Rain Light Rain
11:46 AM 69.8 °F 66.2 °F 88% 30.08 in 3.0 mi NNE 8.1 mph - 0.01 in Rain Light Rain
11:53 AM 70.0 °F 66.0 °F 87% 30.06 in 4.0 mi NE 9.2 mph - 0.01 in Rain Light Rain
12:11 PM 69.8 °F 64.4 °F 83% 30.07 in 4.0 mi NE 11.5 mph 24.2 mph 0.01 in Rain Light Rain
12:23 PM 69.8 °F 66.2 °F 88% 30.07 in 2.5 mi ENE 12.7 mph 18.4 mph 0.01 in Rain Light Rain
12:40 PM 69.8 °F 66.2 °F 88% 30.06 in 3.0 mi ENE 12.7 mph 19.6 mph 0.01 in   Overcast
12:42 PM 69.8 °F 66.2 °F 88% 30.07 in 2.5 mi ENE 11.5 mph 19.6 mph 0.01 in   Overcast
12:49 PM 69.8 °F 66.2 °F 88% 30.07 in 1.5 mi ENE 11.5 mph 19.6 mph 0.01 in Rain Light Rain
12:53 PM 69.1 °F 66.0 °F 90% 30.05 in 1.5 mi ENE 9.2 mph - 0.01 in Rain Light Rain
1:03 PM 69.8 °F 66.2 °F 88% 30.07 in 3.0 mi ENE 10.4 mph - 0.00 in Rain Light Rain
1:51 PM 73.4 °F 69.8 °F 88% 30.08 in 7.0 mi SE 11.5 mph 18.4 mph 0.00 in   Overcast
1:53 PM 73.0 °F 69.1 °F 87% 30.06 in 7.0 mi SSE 15.0 mph 20.7 mph 0.00 in   Overcast
2:20 PM 73.4 °F 66.2 °F 78% 30.08 in 10.0 mi SSE 16.1 mph 24.2 mph N/A   Overcast
2:30 PM 73.4 °F 66.2 °F 78% 30.09 in 10.0 mi SSE 15.0 mph 23.0 mph N/A   Overcast
2:53 PM 73.0 °F 66.9 °F 81% 30.08 in 10.0 mi SSE 10.4 mph 19.6 mph N/A   Overcast
3:04 PM 73.4 °F 66.2 °F 78% 30.09 in 10.0 mi SSE 12.7 mph - N/A   Overcast
3:53 PM 73.9 °F 66.0 °F 76% 30.08 in 10.0 mi SSE 15.0 mph 23.0 mph N/A   Mostly Cloudy
4:01 PM 73.4 °F 66.2 °F 78% 30.09 in 10.0 mi SSE 13.8 mph 21.9 mph N/A   Scattered Clouds
4:53 PM 75.0 °F 66.0 °F 73% 30.07 in 10.0 mi SSE 9.2 mph - N/A   Mostly Cloudy
5:53 PM 77.0 °F 64.9 °F 66% 30.07 in 10.0 mi SE 10.4 mph - N/A   Mostly Cloudy
6:53 PM 73.0 °F 66.0 °F 79% 30.08 in 10.0 mi SE 6.9 mph - 0.00 in Rain Light Rain
7:53 PM 72.0 °F 66.9 °F 84% 30.10 in 9.0 mi SE 5.8 mph - 0.00 in   Scattered Clouds
8:53 PM 71.1 °F 66.9 °F 87% 30.11 in 6.0 mi SE 3.5 mph - 0.01 in Rain Light Rain
9:53 PM 70.0 °F 66.9 °F 90% 30.13 in 7.0 mi Calm Calm - 0.00 in   Overcast
10:53 PM 70.0 °F 66.9 °F 90% 30.14 in 7.0 mi East 3.5 mph - 0.00 in   Overcast
11:53 PM 70.0 °F 66.9 °F 90% 30.16 in 7.0 mi East 5.8 mph - 0.00 in   Overcast